Regional Weather Roundup
Issued by NWS

Home | Current Version | Previous Version | Text Only | Print | Product List | Glossary Off
Versions: 1 2 3 4 5 6 7 8 9 10 11 12 13 14 15 16 17 18 19 20 21 22 23 24 25 26 27

000
ASUS45 KCYS 200410
RWRWY

WYOMING REGIONAL WEATHER ROUNDUP
NATIONAL WEATHER SERVICE CHEYENNE WY
1000 PM MDT SAT AUG 19 2017

NOTE:  "FAIR" INDICATES FEW OR NO CLOUDS BELOW 12,000 FEET
WITH NO SIGNIFICANT WEATHER AND/OR OBSTRUCTIONS TO VISIBILITY.

WYZ001-200500-
YELLOWSTONE NATIONAL PARK

CITY           SKY/WX    TMP DP  RH WIND       PRES   REMARKS
LK YELLOWSTONE   N/A     48  36  63 CALM      30.24F
W YELLOWSTONE  NOT AVBL

$$
WYZ002>013-054>058-071-098>099-200500-
NORTHERN WYOMING

CITY           SKY/WX    TMP DP  RH WIND       PRES   REMARKS
JACKSON        FAIR      57  27  31 CALM      30.15R
CODY           FAIR      68  32  26 CALM      30.03S
GREYBULL       FAIR      78  30  17 NW9       29.90R
WORLAND        FAIR      68  38  33 SE3       29.93R
SHERIDAN       FAIR      64  41  42 NW7       29.99R
BUFFALO        FAIR      69  35  28 W8        30.06R
GILLETTE       FAIR      68  34  28 NE7       29.99R
HULETT         FAIR      72  37  28 E13       30.00R
NEWCASTLE      FAIR      77  32  19 E20       29.93S

$$
WYZ014>020-022>026-101>103-200500-
CENTRAL WYOMING

CITY           SKY/WX    TMP DP  RH WIND       PRES   REMARKS
BIG PINEY      FAIR      55  30  38 N13       30.22R
PINEDALE       FAIR      50  32  50 W5        30.23R
DUBOIS         FAIR      59  21  23 NW7       30.20S
LANDER           N/A    N/A N/A N/A MISG      30.07R
RIVERTON       FAIR      73  20  13 NW13      30.06R
CASPER         FAIR      63  34  33 NW9       30.01R
DOUGLAS        FAIR      66  42  41 S7        29.99R

$$
WYZ021-027>030-104>119-200500-
SOUTHERN WYOMING

CITY           SKY/WX    TMP DP  RH WIND       PRES   REMARKS
EVANSTON       FAIR      71  30  21 W7        30.22R
FORT BRIDGER   FAIR      67  28  22 SW7       30.25R
ROCK SPRINGS   FAIR      68  32  26 SW14      30.20R
RAWLINS        FAIR      61  20  20 CALM      30.17R
SARATOGA       FAIR      59  34  38 W5        30.20S
LARAMIE        FAIR      56  26  31 W6        30.20S
CHEYENNE       FAIR      64  29  26 W8        30.12R
TORRINGTON     FAIR      68  42  38 CALM      29.94R
PINE BLUFFS    FAIR      55  41  58 SW5       30.04S

$$




USA.gov is the U.S. government's official web portal to all federal, state and local government web resources and services.